Location: Kenockee Observatory
(43.0173°N, 82.7297°W)
Time: 18:30:40
(UTC-04:00)

Daily predictions for brighter satellites

Satellite Brightness Start Highest point End
(mag) Time Altitude Azimuth Time Altitude Azimuth Time Altitude Azimuth
Cosmos 1818 3.8 20:12:03 10° NNW 20:17:26 55° NE 20:22:44 10° SE
Helios 1A 4.3 20:18:10 10° ESE 20:21:19 21° ENE 20:24:31 10° NNE
ISS -2.0 20:25:13 10° S 20:27:17 16° SE 20:29:21 10° E
In-Cosmos 22 4.1 20:22:34 10° N 20:27:53 67° ENE 20:33:07 10° SSE
Cosmos 1821 Rocket 4.3 20:21:32 10° SSW 20:27:55 78° W 20:34:18 10° N
GP-B 4.2 20:27:06 10° SE 20:30:43 25° ENE 20:34:19 10° NNE
Cosmos 1378 4.4 20:27:32 10° NNW 20:31:09 46° W 20:34:45 10° SSW
Cosmos 2344 3.8 20:23:47 10° SW 20:31:27 88° NW 20:40:12 10° NE
Cosmos 1844 Rocket 4.2 20:28:22 10° SW 20:33:39 40° WNW 20:38:57 10° NNE
USA 186 2.6 20:33:16 13° ESE 20:34:15 17° ENE 20:35:47 10° NNE
Meteor 1-4 Rocket 3.0 20:31:09 10° SSE 20:34:21 36° E 20:37:35 10° NNE
CZ-2D R/B 3.7 20:30:49 10° SE 20:34:27 41° ENE 20:38:08 10° N
USA 215 4.4 20:30:05 10° ENE 20:34:44 20° ESE 20:39:21 10° SSE
Cosmos-2242 4.1 20:32:39 10° SE 20:35:59 23° E 20:39:20 10° NE
RESURS DK-1 3.7 20:32:58 10° NW 20:36:54 42° WSW 20:40:47 10° S
Cosmos 1805 3.3 20:34:27 10° S 20:38:15 56° E 20:42:06 10° NNE
Resurs 01 Rocket 1.6 20:34:10 10° SSE 20:38:32 67° ENE 20:42:57 10° N
FREGAT/IRIS 4.4 20:38:40 10° SSW 20:41:31 36° W 20:44:24 10° NNW
FENGYUN 3A 3.9 20:38:29 10° S 20:43:54 77° WSW 20:49:19 10° NNW
Cosmos 2098 Rocket 4.5 20:37:05 10° SSE 20:44:12 59° E 20:51:37 10° NNE
Cosmos 1833 Rocket 2.9 20:39:10 10° NNW 20:44:39 51° ENE 20:50:07 10° SE
Cosmos 1544 3.0 20:41:18 10° S 20:44:56 69° E 20:48:36 10° NNE
Lacrosse 5 2.6 20:41:01 10° WSW 20:46:00 56° NW 20:51:01 10° NE
Cosmos 1605 Rocket 4.0 20:39:47 10° S 20:46:04 82° E 20:52:28 10° N
Spot 2 Rocket 3.5 20:46:19 10° SSE 20:51:25 85° ENE 20:56:35 10° NNW
Cosmos 2278 Rocket 2.8 20:47:44 10° SW 20:53:21 63° WNW 20:59:01 10° NNE
Cosmos 1867 3.6 20:49:03 10° SSW 20:54:25 64° ESE 20:59:50 10° NE
Cosmos 1470 3.5 20:51:46 10° SSE 20:55:21 33° E 20:58:56 10° NNE
BREEZE-M DEB (TANK) 3.6 20:55:53 10° SSW 20:59:02 38° SE 21:07:50 10° ENE
Cosmos 1733 3.8 20:55:33 10° SSE 20:59:03 34° E 21:02:35 10° NNE
ATLAS 5 CENTAUR R/B 2.0 20:55:41 10° S 21:00:06 44° ESE 21:04:54 10° NE
Timation 1 Rocket 4.4 20:58:33 10° SSW 21:04:34 89° WNW 21:10:38 10° NNE
Cosmos 1340 Rocket 3.3 21:01:29 10° N 21:05:17 39° ENE 21:07:16 23° SE
Envisat 3.3 21:05:45 16° SE 21:09:35 48° ENE 21:14:28 10° N
Cosmos 2297 3.7 21:04:41 10° SSW 21:10:24 85° ESE 21:16:11 10° NNE
H-2A R/B 3.8 21:07:29 10° S 21:11:15 48° W 21:15:05 10° NNW
Cosmos 1802 Rocket 4.3 21:05:55 10° SSE 21:11:37 43° E 21:17:25 10° NNE
Cosmos 1184 Rocket 4.0 21:12:21 10° NNE 21:15:03 27° ENE 21:15:03 27° ENE
Resurs 1-3 4.3 21:12:12 10° S 21:16:29 56° W 21:20:49 10° NNW
Cosmos 1125 Rocket 3.8 21:14:28 10° SSW 21:19:39 72° WNW 21:24:54 10° NNE
Cosmos 1408 Rocket 3.6 21:16:03 10° N 21:20:33 87° W 21:25:00 10° S
Geosat 3.9 21:16:45 10° NNE 21:21:49 79° ESE 21:26:50 10° SSW
H-2A R/B 4.1 21:21:37 12° ENE 21:21:50 12° ENE 21:23:46 10° NE
Cosmos 1048 Rocket 4.2 21:16:47 10° NNW 21:21:53 70° WSW 21:26:58 10° S
Cosmos 2082 Rocket 2.4 21:17:04 10° NNW 21:22:45 74° WSW 21:27:53 13° SSE
CZ-4B DEB 4.4 21:20:54 24° SSE 21:22:59 82° ENE 21:26:35 10° N
CZ-3 Stage 3 4.1 20:44:21 10° WSW 21:24:02 48° SSW 21:29:16 23° SE
CZ-2C R/B 4.4 21:23:14 10° NW 21:24:13 13° W 21:25:05 10° WSW
ERS-1 Rocket 3.6 21:23:19 29° ESE 21:24:52 36° ENE 21:29:27 10° N
SeaSat 1 4.0 21:21:07 10° S 21:25:33 34° WSW 21:30:02 10° NW
Cosmos 2061 Rocket 4.0 21:20:40 10° S 21:26:57 64° E 21:33:20 10° NNE
SL-14 R/B 3.9 21:27:06 10° N 21:30:24 35° ENE 21:30:24 35° ENE
Timation 2 Rocket 4.0 21:24:56 10° NNW 21:31:16 80° WSW 21:35:50 19° SSE
Cosmos 2151 3.9 21:29:10 10° NNE 21:32:36 30° ENE 21:32:36 30° ENE
ARGOS 4.4 21:32:39 23° ENE 21:33:05 23° ENE 21:37:14 10° NNE
Cosmos 1842 Rocket 3.8 21:34:36 43° ESE 21:35:02 45° E 21:39:15 10° NNE
Cosmos 1328 4.0 21:31:50 10° N 21:35:41 47° ENE 21:35:46 47° E
GPS 2-05 Rocket1 4.5 21:33:49 10° SW 21:36:15 23° S 21:36:15 23° S
TIMED 4.5 21:32:42 10° S 21:36:58 57° ESE 21:41:16 10° NNE
Cosmos 1953 3.9 21:33:24 10° SW 21:37:11 37° WNW 21:40:58 10° N
Cosmos 1271 Rocket 2.9 21:33:38 10° SSW 21:37:38 77° W 21:41:41 10° N
Cosmos 1459 Rocket 3.9 21:31:31 10° S 21:37:46 83° E 21:43:57 10° N
Helios 1B rocket 2.7 21:33:41 10° N 21:37:49 71° WNW 21:41:54 10° SSW
BREEZE-M DEB (TANK) 3.1 21:39:29 10° NW 21:41:29 37° N 21:41:29 37° N
Cosmos 2173 Rocket 3.9 21:38:37 10° S 21:44:48 89° W 21:51:07 10° N
Cosmos 1939 Rocket 2.8 21:44:14 44° SSE 21:45:31 89° WSW 21:49:42 10° NNW
Meteor 1-29 3.4 21:42:40 10° N 21:46:08 62° WNW 21:49:25 11° SSW
YAOGAN 6 3.2 21:47:37 43° NE 21:47:37 43° NE 21:50:34 10° N
Cosmos 1674 4.1 21:44:54 10° NNW 21:48:24 37° W 21:51:30 13° SSW
CZ-4B DEB 4.0 21:52:56 34° WSW 21:53:27 37° W 21:56:23 10° NNW
Helios 1A 4.5 21:53:10 12° SSW 21:56:41 34° W 22:00:32 10° NNW
Lacrosse 5 rocket 1.4 21:54:30 10° NW 21:58:14 59° WSW 21:58:14 59° WSW
Cosmos 2251 Rocket 3.4 21:55:00 10° NNW 22:00:21 79° ENE 22:01:25 58° SE
Meteor 2-17 Rocket 4.3 21:54:58 10° S 22:01:08 87° E 22:07:19 10° N
ISS -2.2 22:00:10 10° WSW 22:02:04 32° WSW 22:02:04 32° WSW
CZ-3B DEB 3.8 22:04:41 10° W 22:11:32 28° NNW 22:14:42 14° NNE
Cosmos 2369 Rocket 4.0 22:18:38 18° NE 22:18:38 18° NE 22:20:04 10° NE
Cosmos 2016 Rocket 4.1 22:10:37 10° SSW 22:16:48 71° W 22:22:58 10° N
Cosmos 1626 4.4 22:13:29 10° N 22:14:33 17° NNE 22:14:33 17° NNE
USA 215 3.1 22:11:49 10° NE 22:18:23 79° SE 22:24:55 10° SW
MetOp-B 4.0 22:23:52 81° ENE 22:23:52 81° ENE 22:29:12 10° NNW
Cosmos 1725 Rocket 3.9 22:23:25 42° S 22:25:42 86° W 22:31:57 10° N
Cosmos 1356 Rocket 4.4 22:23:44 10° NNW 22:27:16 44° WNW 22:27:16 44° WNW
Lacrosse 5 4.2 22:26:10 10° WNW 22:29:56 20° NNW 22:33:43 10° NNE
SPOT 5 3.2 22:33:35 72° N 22:33:35 72° N 22:38:24 10° NNW
NOAA 11 4.1 22:34:16 85° WNW 22:34:16 85° WNW 22:39:43 10° NNW
H-2A R/B 4.3 22:40:21 16° NNE 22:40:21 16° NNE 22:41:19 10° N
Tsikada Rocket 4.2 22:38:31 10° NNW 22:44:40 65° W 22:45:43 55° SW
ATLAS 5 CENTAUR R/B 3.7 22:40:45 10° W 22:44:57 29° NW 22:49:32 10° NNE
Terra 3.8 22:47:55 20° NNE 22:47:55 20° NNE 22:49:40 10° N
USA 267 3.4 22:50:51 58° NE 22:51:12 59° NNE 22:57:36 10° NW
Cosmos 2346 Rocket 4.5 22:45:42 10° N 22:51:27 77° N 22:51:27 77° N
H-2A R/B 3.1 23:02:14 43° N 23:02:14 43° N 23:05:44 10° N
MOS 1-B Rocket 4.4 23:04:48 84° S 23:05:05 89° WSW 23:12:05 10° NNW
ARGOS 4.2 23:14:09 43° WNW 23:14:09 43° WNW 23:18:12 10° NNW
